Regional Weather Roundup
Issued by NWS

Home | Current Version | Previous Version | Graphics & Text | Print | Product List | Glossary On
Versions: 1 2 3 4 5 6 7 8 9 10 11 12 13 14 15 16 17 18 19 20 21 22 23 24 25 26 27 28 29 30 31 32 33 34 35 36 37 38 39 40 41 42 43 44 45 46 47 48 49 50
599
ASUS44 KJAN 291403
RWRMS

MISSISSIPPI HOURLY WEATHER ROUNDUP
NATIONAL WEATHER SERVICE JACKSON MS
800 AM CST THU JAN 29 2015

NOTE: "FAIR: INDICATES FEW OR NO CLOUDS BELOW 12,000 FEET WITH NO
SIGNIFICANT WEATHER AND/OR OBSTRUCTIONS TO VISIBILITY.

MSZ001>002-007>008-010>013-018>021-025>028-034>036-291500-
NORTHWEST MISSISSIPPI

CITY           SKY/WX    TMP DP  RH WIND       PRES   REMARKS
CLARKSDALE     FAIR      52  48  87 S9        30.11R
CLEVELAND      FAIR      51  49  91 SW9       30.12R
GREENWOOD      PTSUNNY   55  44  66 SW13      30.15R
GREENVILLE     PTSUNNY   54  48  80 SW10      30.12R
GRENADA        FAIR      54  41  62 S5        30.13R
OLIVE BRANCH   MOSUNNY   52  46  82 S16       30.07R
OXFORD         FAIR      48  39  71 S3        30.12R
TUNICA         PTSUNNY   52  45  76 S13       30.09R
$$

MSZ003>006-009-014>017-022>024-029>033-037>039-291500-
NORTHEAST MISSISSIPPI

CITY           SKY/WX    TMP DP  RH WIND       PRES   REMARKS
COLUMBUS AFB   CLOUDY    48  35  61 S12       30.19S
CORINTH        PTSUNNY   50  34  53 S12       30.09S
GOLDN TRIANGLE CLOUDY    45  36  70 S8        30.19R
STARKVILLE     CLOUDY    45  36  70 SE5       30.18F
TUPELO         CLOUDY    47  34  60 S12       30.14R
$$

MSZ040-058-291500-
CENTRAL MISSISSIPPI

CITY           SKY/WX    TMP DP  RH WIND       PRES   REMARKS
JACKSON INTL   MOSUNNY   53  47  79 S9        30.21R
JACKSON HAWKNS NOT AVBL
MERIDIAN KEY   MOSUNNY   45  41  86 SW7       30.24R
MERIDIAN NAS   PTSUNNY   47  41  80 SE5       30.24R
RAYMOND        FAIR      54  48  82 MISG      30.20R
VICKSBURG      CLOUDY    56  49  77 SW8       30.19R
$$

MSZ059>079-291500-
SOUTH MISSISSIPPI

CITY           SKY/WX    TMP DP  RH WIND       PRES   REMARKS
BROOKHAVEN       N/A     50  48  93 S8        30.22R
HATTIESBURG    SUNNY     41  39  93 CALM      30.27R
MCCOMB         MOSUNNY   45  43  93 CALM      30.22S FOG
NATCHEZ        CLOUDY    55  50  82 S6        30.21R
PINE BELT      SUNNY     43  39  87 SE5       30.24F
$$

MSZ080>082-291500-
COASTAL MISSISSIPPI

CITY           SKY/WX    TMP DP  RH WIND       PRES   REMARKS
BAY ST LOUIS   SUNNY     45  41  87 CALM      30.24F
BILOXI         SUNNY     59  53  80 S9        30.25S
PASCAGOULA     SUNNY     49  47  93 CALM      30.27R
GULFPORT       SUNNY     45  43  93 CALM      30.25R
$$



USA.gov is the U.S. government's official web portal to all federal, state and local government web resources and services.